^^
Datos históricos de la estación: Murcia-Puente Tocinos
Diario Informe para Marzo 3, 2019 Unidades:  Métrico    Inglés   Ambas
Diario Semanal Mensual Anual Configurable
  Máximo: Mínimo: Media:
Temperatura: 25.9 °C 8.2 °C 17.1 °C
Punto de rocio: 9.7 °C 0.7 °C 5.1 °C
Humedad: 80% 24% 50%
Velocidad viento: 13.7km/h 0.0km/h 6km/h
Racha viento: 22.2km/h - -
Viento- - South
Presión: 1023.9 hPa 1018.4 hPa -
Precipitación: 0.0 mm    
Historical Graphs
 
 
Tabla de datos para Marzo 3, 2019
Hora Temperatura Punto de rocio Presión Viento Velocidad viento Racha viento Humedad Intensidad lluvia(por hora) Nubes
00:05 13.4 °C 9.7 °C 1023.1 hPa SSW 6.4 km/h 7.4 km/h 78% 0.0 mm CLR
00:10 13.4 °C 9.7 °C 1023.1 hPa SW 5.8 km/h 9.3 km/h 78% 0.0 mm CLR
00:15 13.4 °C 9.7 °C 1023.1 hPa SW 4.8 km/h 9.7 km/h 78% 0.0 mm CLR
00:19 13.3 °C 9.3 °C 1022.8 hPa SW 5.0 km/h 7.4 km/h 77% 0.0 mm CLR
00:25 13.3 °C 9.3 °C 1022.8 hPa SW 5.0 km/h 5.6 km/h 77% 0.0 mm CLR
00:30 13.2 °C 9.3 °C 1022.8 hPa SW 4.7 km/h 5.6 km/h 77% 0.0 mm CLR
00:35 13.2 °C 9.3 °C 1022.7 hPa SW 3.2 km/h 9.7 km/h 77% 0.0 mm CLR
00:40 13.1 °C 9.2 °C 1022.7 hPa SW 5.0 km/h 9.3 km/h 77% 0.0 mm CLR
00:45 13.1 °C 9.2 °C 1022.7 hPa SW 4.8 km/h 9.7 km/h 77% 0.0 mm CLR
00:49 13.0 °C 9.1 °C 1022.8 hPa SW 5.8 km/h 5.6 km/h 77% 0.0 mm CLR
00:55 13.0 °C 8.9 °C 1022.8 hPa SW 4.8 km/h 8.0 km/h 76% 0.0 mm CLR
01:00 12.9 °C 8.8 °C 1022.8 hPa SW 3.2 km/h 8.0 km/h 76% 0.0 mm CLR
01:05 12.9 °C 8.8 °C 1022.7 hPa WSW 2.9 km/h 7.4 km/h 76% 0.0 mm CLR
01:09 12.9 °C 8.8 °C 1022.7 hPa WSW 4.7 km/h 9.3 km/h 76% 0.0 mm CLR
01:14 12.9 °C 8.8 °C 1022.7 hPa SSW 4.7 km/h 9.3 km/h 76% 0.0 mm CLR
01:19 12.7 °C 8.6 °C 1022.7 hPa SSW 5.8 km/h 11.1 km/h 76% 0.0 mm CLR
01:24 12.6 °C 8.7 °C 1022.7 hPa SSW 5.8 km/h 7.4 km/h 77% 0.0 mm CLR
01:29 12.4 °C 8.5 °C 1022.7 hPa SSW 6.4 km/h 7.4 km/h 77% 0.0 mm CLR
01:34 12.4 °C 8.5 °C 1022.7 hPa South 6.4 km/h 8.4 km/h 77% 0.0 mm CLR
01:39 12.3 °C 8.4 °C 1022.7 hPa SSW 5.0 km/h 8.4 km/h 77% 0.0 mm CLR
01:44 12.3 °C 8.4 °C 1022.7 hPa South 5.0 km/h 7.4 km/h 77% 0.0 mm CLR
01:49 12.2 °C 8.3 °C 1022.6 hPa South 5.8 km/h 7.4 km/h 77% 0.0 mm CLR
01:54 12.2 °C 8.3 °C 1022.6 hPa SSE 5.8 km/h 5.8 km/h 77% 0.0 mm CLR
01:59 12.1 °C 8.2 °C 1022.6 hPa South 4.7 km/h 7.4 km/h 77% 0.0 mm CLR
02:04 12.1 °C 8.2 °C 1022.4 hPa South 4.7 km/h 9.3 km/h 77% 0.0 mm CLR
02:09 12.0 °C 8.1 °C 1022.4 hPa SSE 5.8 km/h 10.0 km/h 77% 0.0 mm CLR
02:14 11.9 °C 7.8 °C 1022.4 hPa SE 5.8 km/h 7.6 km/h 76% 0.0 mm CLR
02:19 11.5 °C 7.6 °C 1022.5 hPa South 6.9 km/h 11.1 km/h 77% 0.0 mm CLR
02:24 11.4 °C 7.7 °C 1022.5 hPa South 6.9 km/h 13.0 km/h 78% 0.0 mm CLR
02:29 11.3 °C 7.4 °C 1022.5 hPa SSW 8.7 km/h 11.1 km/h 77% 0.0 mm CLR
02:34 11.4 °C 7.3 °C 1022.4 hPa SSW 8.7 km/h 11.1 km/h 76% 0.0 mm CLR
02:39 11.5 °C 7.2 °C 1022.4 hPa SSW 8.7 km/h 11.1 km/h 75% 0.0 mm CLR
02:44 11.6 °C 7.1 °C 1022.4 hPa South 8.7 km/h 7.4 km/h 74% 0.0 mm CLR
02:49 11.7 °C 7.0 °C 1022.4 hPa SSW 5.8 km/h 9.3 km/h 73% 0.0 mm CLR
02:54 11.7 °C 6.8 °C 1022.4 hPa SSW 5.8 km/h 7.4 km/h 72% 0.0 mm CLR
02:59 11.7 °C 6.8 °C 1022.4 hPa South 6.9 km/h 9.3 km/h 72% 0.0 mm CLR
03:04 11.7 °C 6.8 °C 1022.1 hPa SSW 6.9 km/h 9.3 km/h 72% 0.0 mm CLR
03:09 11.6 °C 6.9 °C 1022.1 hPa SSW 8.4 km/h 13.0 km/h 73% 0.0 mm CLR
03:14 11.6 °C 7.1 °C 1022.1 hPa SW 8.4 km/h 11.1 km/h 74% 0.0 mm CLR
03:19 11.5 °C 7.0 °C 1022.1 hPa SSW 8.4 km/h 11.1 km/h 74% 0.0 mm CLR
03:24 11.5 °C 7.4 °C 1022.1 hPa SSW 8.4 km/h 11.9 km/h 76% 0.0 mm CLR
03:29 11.4 °C 7.5 °C 1022.1 hPa SW 8.4 km/h 9.3 km/h 77% 0.0 mm CLR
03:34 11.4 °C 7.5 °C 1021.8 hPa SSW 8.4 km/h 9.3 km/h 77% 0.0 mm CLR
03:39 11.3 °C 7.6 °C 1021.8 hPa SSW 6.9 km/h 7.4 km/h 78% 0.0 mm CLR
03:44 11.3 °C 7.8 °C 1021.8 hPa SSW 6.9 km/h 9.3 km/h 79% 0.0 mm CLR
03:49 11.2 °C 7.7 °C 1021.8 hPa SW 5.8 km/h 11.1 km/h 79% 0.0 mm CLR
03:54 11.1 °C 7.6 °C 1021.8 hPa South 5.8 km/h 8.7 km/h 79% 0.0 mm CLR
03:59 11.1 °C 7.6 °C 1021.8 hPa SSW 6.9 km/h 9.3 km/h 79% 0.0 mm CLR
04:04 11.0 °C 7.5 °C 1021.8 hPa South 6.9 km/h 9.3 km/h 79% 0.0 mm CLR
04:09 10.9 °C 7.6 °C 1021.8 hPa South 6.9 km/h 9.5 km/h 80% 0.0 mm CLR
04:14 10.8 °C 7.5 °C 1021.8 hPa SW 6.9 km/h 11.1 km/h 80% 0.0 mm CLR
04:19 10.8 °C 7.3 °C 1021.8 hPa SSW 7.6 km/h 11.1 km/h 79% 0.0 mm CLR
04:24 10.7 °C 7.2 °C 1021.8 hPa SSW 7.6 km/h 11.1 km/h 79% 0.0 mm CLR
04:29 10.8 °C 7.3 °C 1021.8 hPa SW 7.6 km/h 9.3 km/h 79% 0.0 mm CLR
04:34 10.9 °C 7.2 °C 1021.8 hPa SW 7.6 km/h 7.4 km/h 78% 0.0 mm CLR
04:39 10.9 °C 7.0 °C 1021.8 hPa SW 5.8 km/h 9.3 km/h 77% 0.0 mm CLR
04:44 10.9 °C 7.0 °C 1021.8 hPa WSW 5.8 km/h 5.6 km/h 77% 0.0 mm CLR
04:49 10.8 °C 6.7 °C 1022.0 hPa WSW 3.9 km/h 7.4 km/h 76% 0.0 mm CLR
04:54 10.7 °C 6.7 °C 1022.0 hPa WSW 3.9 km/h 7.4 km/h 76% 0.0 mm CLR
04:59 10.6 °C 6.6 °C 1022.0 hPa WSW 3.2 km/h 7.4 km/h 76% 0.0 mm CLR
05:04 10.5 °C 6.4 °C 1022.1 hPa WSW 3.2 km/h 5.0 km/h 76% 0.0 mm CLR
05:09 10.4 °C 6.3 °C 1022.1 hPa WSW 3.2 km/h 7.4 km/h 76% 0.0 mm CLR
05:14 10.4 °C 6.3 °C 1022.1 hPa South 3.2 km/h 7.4 km/h 76% 0.0 mm CLR
05:19 10.4 °C 6.2 °C 1022.0 hPa South 4.7 km/h 5.6 km/h 75% 0.0 mm CLR
05:24 10.4 °C 6.2 °C 1022.0 hPa South 4.7 km/h 7.4 km/h 75% 0.0 mm CLR
05:29 10.4 °C 6.2 °C 1022.0 hPa South 4.7 km/h 7.4 km/h 75% 0.0 mm CLR
05:34 10.4 °C 6.2 °C 1022.2 hPa SSW 4.7 km/h 7.6 km/h 75% 0.0 mm CLR
05:39 10.4 °C 6.2 °C 1022.2 hPa SW 5.8 km/h 9.3 km/h 75% 0.0 mm CLR
05:44 10.5 °C 6.3 °C 1022.2 hPa SW 5.8 km/h 7.4 km/h 75% 0.0 mm CLR
05:49 10.6 °C 6.2 °C 1022.1 hPa SSE 5.8 km/h 9.5 km/h 74% 0.0 mm CLR
05:54 10.5 °C 6.1 °C 1022.1 hPa SSE 5.8 km/h 7.4 km/h 74% 0.0 mm CLR
05:59 10.2 °C 5.8 °C 1022.1 hPa SSE 5.8 km/h 7.4 km/h 74% 0.0 mm CLR
06:04 10.0 °C 5.8 °C 1022.1 hPa SSE 5.8 km/h 9.3 km/h 75% 0.0 mm CLR
06:09 9.9 °C 5.9 °C 1022.1 hPa South 6.9 km/h 9.3 km/h 76% 0.0 mm CLR
06:14 9.9 °C 5.9 °C 1022.1 hPa South 6.9 km/h 7.4 km/h 76% 0.0 mm CLR
06:19 9.9 °C 5.9 °C 1021.8 hPa South 6.4 km/h 9.3 km/h 76% 0.0 mm CLR
06:24 9.9 °C 5.9 °C 1021.8 hPa SSE 6.4 km/h 7.4 km/h 76% 0.0 mm CLR
06:29 9.8 °C 5.8 °C 1021.8 hPa SSE 3.9 km/h   76% 0.0 mm CLR
06:34 9.9 °C 5.9 °C 1021.8 hPa SSE 3.9 km/h 1.9 km/h 76% 0.0 mm CLR
06:39 9.9 °C 5.9 °C 1021.8 hPa Calm     76% 0.0 mm CLR
06:44 9.8 °C 5.8 °C 1021.8 hPa Calm   5.8 km/h 76% 0.0 mm CLR
06:49 9.8 °C 5.8 °C 1022.0 hPa WNW 3.2 km/h 8.4 km/h 76% 0.0 mm CLR
06:54 9.7 °C 5.7 °C 1022.0 hPa WNW 3.2 km/h 5.6 km/h 76% 0.0 mm CLR
06:59 9.6 °C 5.6 °C 1022.0 hPa WNW 4.7 km/h 3.7 km/h 76% 0.0 mm CLR
07:04 9.6 °C 5.8 °C 1022.4 hPa WNW 4.7 km/h 5.6 km/h 77% 0.0 mm CLR
07:09 9.6 °C 5.6 °C 1022.4 hPa ESE 3.2 km/h 7.6 km/h 76% 0.0 mm CLR
07:14 9.1 °C 5.3 °C 1022.4 hPa SE 3.2 km/h 9.5 km/h 77% 0.0 mm CLR
07:19 8.7 °C 5.3 °C 1022.5 hPa SE 6.9 km/h 9.3 km/h 79% 0.0 mm CLR
07:24 8.4 °C 4.9 °C 1022.5 hPa South 6.9 km/h 14.8 km/h 79% 0.0 mm CLR
07:29 8.3 °C 5.1 °C 1022.5 hPa South 9.5 km/h 14.8 km/h 80% 0.0 mm CLR
07:34 8.2 °C 4.9 °C 1022.6 hPa SSE 9.5 km/h 12.2 km/h 80% 0.0 mm CLR
07:39 8.2 °C 4.9 °C 1022.6 hPa SSE 8.4 km/h 13.0 km/h 80% 0.0 mm CLR
07:44 8.3 °C 5.1 °C 1022.6 hPa SSE 8.4 km/h 13.0 km/h 80% 0.0 mm CLR
07:49 8.5 °C 5.1 °C 1022.7 hPa SSW 9.5 km/h 13.0 km/h 79% 0.0 mm CLR
07:54 8.7 °C 4.9 °C 1022.7 hPa SSW 9.5 km/h 15.6 km/h 77% 0.0 mm CLR
07:59 8.9 °C 4.9 °C 1022.7 hPa South 9.5 km/h 9.5 km/h 76% 0.0 mm CLR
08:04 9.2 °C 5.0 °C 1023.0 hPa SSW 9.5 km/h 9.3 km/h 75% 0.0 mm CLR
08:09 9.3 °C 4.7 °C 1023.0 hPa WSW 8.4 km/h 9.3 km/h 73% 0.0 mm CLR
08:14 9.5 °C 4.7 °C 1023.0 hPa SW 8.4 km/h 9.3 km/h 72% 0.0 mm CLR
08:19 9.7 °C 4.7 °C 1023.2 hPa SW 6.4 km/h 9.3 km/h 71% 0.0 mm CLR
08:24 9.9 °C 4.5 °C 1023.2 hPa SSW 6.4 km/h 11.1 km/h 69% 0.0 mm CLR
08:29 10.1 °C 4.7 °C 1023.2 hPa SSW 6.4 km/h 9.3 km/h 69% 0.0 mm CLR
08:34 10.3 °C 4.7 °C 1023.4 hPa SSW 6.4 km/h 7.4 km/h 68% 0.0 mm CLR
08:39 10.5 °C 4.6 °C 1023.4 hPa SW 6.4 km/h 7.4 km/h 67% 0.0 mm CLR
08:44 10.8 °C 4.7 °C 1023.4 hPa SW 6.4 km/h 7.4 km/h 66% 0.0 mm CLR
08:49 11.1 °C 4.6 °C 1023.5 hPa South 4.7 km/h 7.4 km/h 64% 0.0 mm CLR
08:54 11.3 °C 4.7 °C 1023.5 hPa South 4.7 km/h 7.4 km/h 64% 0.0 mm CLR
08:59 11.6 °C 4.8 °C 1023.5 hPa South 4.7 km/h 7.4 km/h 63% 0.0 mm CLR
09:04 11.8 °C 4.7 °C 1023.6 hPa SSW 4.7 km/h 9.3 km/h 62% 0.0 mm CLR
09:09 11.9 °C 4.6 °C 1023.6 hPa South 5.0 km/h 7.4 km/h 61% 0.0 mm CLR
09:14 12.2 °C 4.7 °C 1023.6 hPa South 5.0 km/h 7.4 km/h 60% 0.0 mm CLR
09:19 12.3 °C 4.5 °C 1023.7 hPa South 4.7 km/h 5.6 km/h 59% 0.0 mm CLR
09:24 12.7 °C 4.7 °C 1023.7 hPa South 4.7 km/h 5.6 km/h 58% 0.0 mm CLR
09:29 12.9 °C 4.6 °C 1023.7 hPa SSW 3.9 km/h 7.4 km/h 57% 0.0 mm CLR
09:34 13.3 °C 4.7 °C 1023.9 hPa SSW 3.9 km/h 5.6 km/h 56% 0.0 mm CLR
09:39 13.6 °C 4.2 °C 1023.9 hPa SSW 3.9 km/h 7.4 km/h 53% 0.0 mm CLR
09:44 13.9 °C 3.9 °C 1023.9 hPa SSW 3.9 km/h 7.6 km/h 51% 0.0 mm CLR
09:49 14.2 °C 3.9 °C 1023.9 hPa SW 5.8 km/h 7.4 km/h 50% 0.0 mm CLR
09:54 14.4 °C 3.8 °C 1023.9 hPa SSW 5.8 km/h 9.5 km/h 49% 0.0 mm CLR
09:59 14.6 °C 4.0 °C 1023.9 hPa SW 5.8 km/h 7.4 km/h 49% 0.0 mm CLR
10:04 14.9 °C 4.3 °C 1023.9 hPa South 5.8 km/h 7.6 km/h 49% 0.0 mm CLR
10:09 15.1 °C 4.4 °C 1023.9 hPa South 5.0 km/h 7.6 km/h 49% 0.0 mm CLR
10:14 15.3 °C 4.6 °C 1023.9 hPa SSW 5.0 km/h 7.4 km/h 49% 0.0 mm CLR
10:19 15.6 °C 4.9 °C 1023.8 hPa South 6.4 km/h 7.4 km/h 49% 0.0 mm CLR
10:24 15.8 °C 4.5 °C 1023.8 hPa WSW 6.4 km/h 11.1 km/h 47% 0.0 mm CLR
10:29 16.0 °C 4.1 °C 1023.8 hPa SW 6.4 km/h 13.0 km/h 45% 0.0 mm CLR
10:34 16.2 °C 4.2 °C 1023.8 hPa SW 6.4 km/h 9.3 km/h 45% 0.0 mm CLR
10:39 16.6 °C 3.9 °C 1023.8 hPa SSW 6.9 km/h 11.1 km/h 43% 0.0 mm CLR
10:44 16.7 °C 3.7 °C 1023.8 hPa SW 6.9 km/h 11.1 km/h 42% 0.0 mm CLR
10:49 16.8 °C 3.8 °C 1023.6 hPa SSW 8.7 km/h 9.3 km/h 42% 0.0 mm CLR
10:54 17.1 °C 4.1 °C 1023.6 hPa SSE 8.7 km/h 7.4 km/h 42% 0.0 mm CLR
10:59 17.3 °C 3.9 °C 1023.6 hPa SSW 6.4 km/h 9.3 km/h 41% 0.0 mm CLR
11:04 17.6 °C 4.2 °C 1023.5 hPa SSW 6.4 km/h 9.3 km/h 41% 0.0 mm CLR
11:09 17.8 °C 4.0 °C 1023.5 hPa WSW 6.9 km/h 7.4 km/h 40% 0.0 mm CLR
11:14 18.1 °C 4.3 °C 1023.5 hPa SSE 6.9 km/h 7.4 km/h 40% 0.0 mm CLR
11:19 18.3 °C 4.4 °C 1023.4 hPa WSW 5.0 km/h 3.7 km/h 40% 0.0 mm CLR
11:24 18.8 °C 4.2 °C 1023.4 hPa WSW 5.0 km/h 9.3 km/h 38% 0.0 mm CLR
11:29 19.1 °C 4.1 °C 1023.4 hPa South 3.2 km/h 5.6 km/h 37% 0.0 mm CLR
11:34 19.4 °C 4.3 °C 1023.3 hPa SW 3.2 km/h 7.6 km/h 37% 0.0 mm CLR
11:39 19.6 °C 3.7 °C 1023.3 hPa SW 3.9 km/h 11.1 km/h 35% 0.0 mm CLR
11:44 19.7 °C 3.8 °C 1023.3 hPa South 3.9 km/h 7.4 km/h 35% 0.0 mm CLR
11:49 19.9 °C 4.0 °C 1023.1 hPa WSW 5.8 km/h 7.6 km/h 35% 0.0 mm CLR
11:54 20.1 °C 3.7 °C 1023.1 hPa WNW 5.8 km/h 9.3 km/h 34% 0.0 mm CLR
11:59 20.3 °C 3.5 °C 1023.1 hPa West 4.7 km/h 7.4 km/h 33% 0.0 mm CLR
12:04 20.5 °C 3.2 °C 1023.0 hPa SW 4.7 km/h 11.1 km/h 32% 0.0 mm CLR
12:09 20.6 °C 3.3 °C 1023.0 hPa SW 5.8 km/h 9.5 km/h 32% 0.0 mm CLR
12:14 20.8 °C 3.1 °C 1023.0 hPa WSW 5.8 km/h 7.4 km/h 31% 0.0 mm CLR
12:19 21.1 °C 3.3 °C 1023.0 hPa South 5.0 km/h 9.3 km/h 31% 0.0 mm CLR
12:24 21.4 °C 3.1 °C 1023.0 hPa SSE 5.0 km/h 9.3 km/h 30% 0.0 mm CLR
12:29 21.6 °C 3.3 °C 1023.0 hPa SW 5.8 km/h 8.4 km/h 30% 0.0 mm CLR
12:34 21.5 °C 3.2 °C 1022.8 hPa WSW 5.8 km/h 7.4 km/h 30% 0.0 mm CLR
12:39 21.7 °C 3.3 °C 1022.8 hPa WSW 4.7 km/h 7.6 km/h 30% 0.0 mm CLR
12:45 22.0 °C 3.6 °C 1022.8 hPa WNW 4.7 km/h 5.6 km/h 30% 0.0 mm CLR
12:49 22.3 °C 3.4 °C 1022.5 hPa ESE 3.9 km/h 7.4 km/h 29% 0.0 mm CLR
12:54 22.6 °C 3.2 °C 1022.5 hPa ESE 3.9 km/h 3.7 km/h 28% 0.0 mm CLR
12:59 22.9 °C 3.4 °C 1022.5 hPa SW 3.2 km/h 6.9 km/h 28% 0.0 mm CLR
13:04 23.2 °C 3.2 °C 1022.2 hPa South 3.2 km/h 7.4 km/h 27% 0.0 mm CLR
13:09 23.3 °C 3.2 °C 1022.2 hPa South 4.7 km/h 5.6 km/h 27% 0.0 mm CLR
13:14 23.5 °C 3.4 °C 1022.2 hPa South 4.7 km/h 7.4 km/h 27% 0.0 mm CLR
13:19 23.6 °C 2.9 °C 1022.0 hPa East 3.2 km/h 7.4 km/h 26% 0.0 mm CLR
13:24 23.7 °C 3.6 °C 1022.0 hPa ESE 3.2 km/h 7.4 km/h 27% 0.0 mm CLR
13:29 23.8 °C 3.7 °C 1022.0 hPa ENE 3.2 km/h 5.6 km/h 27% 0.0 mm CLR
13:34 23.8 °C 3.1 °C 1021.7 hPa WNW 3.2 km/h 6.4 km/h 26% 0.0 mm CLR
13:39 23.9 °C 3.2 °C 1021.7 hPa NW 3.9 km/h 3.7 km/h 26% 0.0 mm CLR
13:45 24.2 °C 2.9 °C 1021.7 hPa WNW 3.2 km/h 8.0 km/h 25% 0.0 mm CLR
13:49 24.3 °C 3.6 °C 1021.3 hPa SSE 3.2 km/h 9.5 km/h 26% 0.0 mm CLR
13:55 24.2 °C 3.4 °C 1021.3 hPa East 3.2 km/h 5.6 km/h 26% 0.0 mm CLR
13:59 24.2 °C 3.4 °C 1021.3 hPa East 5.0 km/h 5.6 km/h 26% 0.0 mm CLR
14:04 24.4 °C 3.7 °C 1021.0 hPa East 5.0 km/h 1.9 km/h 26% 0.0 mm CLR
14:09 24.7 °C 3.3 °C 1021.0 hPa WNW 2.3 km/h 5.6 km/h 25% 0.0 mm CLR
14:15 24.9 °C 3.5 °C 1021.0 hPa East 1.6 km/h 8.0 km/h 25% 0.0 mm CLR
14:19 25.0 °C 4.2 °C 1020.7 hPa North 3.2 km/h 7.4 km/h 26% 0.0 mm CLR
14:24 25.1 °C 3.7 °C 1020.7 hPa SSE 3.2 km/h 9.5 km/h 25% 0.0 mm CLR
14:29 25.2 °C 3.8 °C 1020.7 hPa NE 4.7 km/h 7.6 km/h 25% 0.0 mm CLR
14:34 25.2 °C 3.8 °C 1020.4 hPa ESE 4.7 km/h 5.8 km/h 25% 0.0 mm CLR
14:39 25.1 °C 3.7 °C 1020.4 hPa East 5.0 km/h 9.3 km/h 25% 0.0 mm CLR
14:44 24.9 °C 3.5 °C 1020.4 hPa SSE 5.0 km/h 9.3 km/h 25% 0.0 mm CLR
14:49 24.9 °C 4.1 °C 1020.2 hPa SSW 6.4 km/h 11.1 km/h 26% 0.0 mm CLR
14:54 25.1 °C 4.2 °C 1020.2 hPa SW 6.4 km/h 3.7 km/h 26% 0.0 mm CLR
14:59 25.3 °C 4.4 °C 1020.2 hPa NE 5.0 km/h 10.0 km/h 26% 0.0 mm CLR
15:04 25.4 °C 3.9 °C 1019.9 hPa ESE 5.0 km/h 11.1 km/h 25% 0.0 mm CLR
15:09 25.4 °C 3.9 °C 1019.9 hPa East 5.8 km/h 13.0 km/h 25% 0.0 mm CLR
15:14 25.4 °C 3.9 °C 1019.9 hPa SE 5.8 km/h 9.3 km/h 25% 0.0 mm CLR
15:19 25.5 °C 4.0 °C 1019.8 hPa SE 5.8 km/h 7.4 km/h 25% 0.0 mm CLR
15:24 25.4 °C 3.9 °C 1019.8 hPa NE 5.8 km/h 13.0 km/h 25% 0.0 mm CLR
15:28 25.4 °C 3.9 °C 1019.8 hPa ENE 6.4 km/h 3.7 km/h 25% 0.0 mm CLR
15:34 25.8 °C 3.7 °C 1019.6 hPa South 6.4 km/h 7.4 km/h 24% 0.0 mm CLR
15:39 25.9 °C 5.4 °C 1019.6 hPa ENE 4.7 km/h 14.8 km/h 27% 0.0 mm CLR
15:44 25.7 °C 5.8 °C 1019.6 hPa ESE 4.7 km/h 19.8 km/h 28% 0.0 mm CLR
15:49 25.5 °C 5.1 °C 1019.4 hPa ESE 12.2 km/h 13.0 km/h 27% 0.0 mm CLR
15:54 25.6 °C 4.7 °C 1019.4 hPa SE 12.2 km/h 20.4 km/h 26% 0.0 mm CLR
15:59 25.6 °C 5.7 °C 1019.4 hPa ESE 12.2 km/h 18.5 km/h 28% 0.0 mm CLR
16:05 25.6 °C 6.2 °C 1019.3 hPa East 12.2 km/h 11.1 km/h 29% 0.0 mm CLR
16:09 25.6 °C 5.7 °C 1019.3 hPa ESE 13.0 km/h 16.7 km/h 28% 0.0 mm CLR
16:14 25.5 °C 6.2 °C 1019.3 hPa NNW 13.0 km/h 20.4 km/h 29% 0.0 mm CLR
16:19 25.6 °C 5.7 °C 1019.2 hPa South 11.9 km/h 13.0 km/h 28% 0.0 mm CLR
16:24 25.7 °C 6.3 °C 1019.2 hPa SE 11.9 km/h 20.4 km/h 29% 0.0 mm CLR
16:29 25.5 °C 6.7 °C 1019.2 hPa SE 10.0 km/h 18.5 km/h 30% 0.0 mm CLR
16:34 25.5 °C 7.1 °C 1019.1 hPa ESE 10.0 km/h 20.4 km/h 31% 0.0 mm CLR
16:39 25.4 °C 7.1 °C 1019.1 hPa SE 13.0 km/h 18.0 km/h 31% 0.0 mm CLR
16:44 25.3 °C 6.4 °C 1019.1 hPa SE 13.0 km/h 18.5 km/h 30% 0.0 mm CLR
16:49 25.2 °C 6.4 °C 1019.0 hPa SSE 12.2 km/h 22.2 km/h 30% 0.0 mm CLR
16:54 25.2 °C 7.3 °C 1019.0 hPa SSE 12.2 km/h 22.2 km/h 32% 0.0 mm CLR
16:59 25.1 °C 7.2 °C 1019.0 hPa ENE 13.7 km/h 14.8 km/h 32% 0.0 mm CLR
17:04 25.0 °C 7.2 °C 1018.9 hPa SE 13.7 km/h 22.2 km/h 32% 0.0 mm CLR
17:09 24.9 °C 7.5 °C 1018.9 hPa SSE 11.9 km/h 22.2 km/h 33% 0.0 mm CLR
17:15 24.8 °C 7.0 °C 1018.9 hPa SE 11.9 km/h 16.7 km/h 32% 0.0 mm CLR
17:19 24.8 °C 7.0 °C 1018.6 hPa SE 13.7 km/h 20.4 km/h 32% 0.0 mm CLR
17:25 24.7 °C 7.3 °C 1018.6 hPa SE 12.9 km/h 20.9 km/h 33% 0.0 mm CLR
17:29 24.6 °C 7.3 °C 1018.6 hPa ESE 13.7 km/h 16.4 km/h 33% 0.0 mm CLR
17:34 24.5 °C 7.2 °C 1018.5 hPa East 13.7 km/h 14.0 km/h 33% 0.0 mm CLR
17:39 24.4 °C 6.6 °C 1018.5 hPa SE 10.0 km/h 16.7 km/h 32% 0.0 mm CLR
17:45 24.3 °C 6.1 °C 1018.5 hPa ESE 9.7 km/h 16.1 km/h 31% 0.0 mm CLR
17:49 24.3 °C 5.6 °C 1018.5 hPa SE 10.0 km/h 14.8 km/h 30% 0.0 mm CLR
17:54 24.3 °C 5.6 °C 1018.5 hPa SSE 10.0 km/h 9.3 km/h 30% 0.0 mm CLR
17:59 24.3 °C 5.1 °C 1018.5 hPa SE 8.7 km/h 14.8 km/h 29% 0.0 mm CLR
18:05 24.2 °C 5.0 °C 1018.5 hPa ESE 9.7 km/h 19.3 km/h 29% 0.0 mm CLR
18:09 23.9 °C 4.8 °C 1018.5 hPa SE 10.3 km/h 16.1 km/h 29% 0.0 mm CLR
18:15 23.9 °C 4.8 °C 1018.5 hPa ESE 11.3 km/h 16.1 km/h 29% 0.0 mm CLR
18:19 23.8 °C 4.7 °C 1018.4 hPa SE 8.7 km/h 7.4 km/h 29% 0.0 mm CLR
18:24 23.7 °C 4.6 °C 1018.4 hPa SE 8.7 km/h 9.3 km/h 29% 0.0 mm CLR
18:29 23.6 °C 4.0 °C 1018.4 hPa SSE 5.8 km/h 10.0 km/h 28% 0.0 mm CLR
18:35 23.6 °C 3.5 °C 1018.5 hPa SE 4.8 km/h 14.5 km/h 27% 0.0 mm CLR
18:39 23.6 °C 2.9 °C 1018.5 hPa SSE 7.6 km/h 13.7 km/h 26% 0.0 mm CLR
18:45 23.5 °C 3.4 °C 1018.5 hPa SSE 8.0 km/h 12.9 km/h 27% 0.0 mm CLR
18:49 23.4 °C 2.2 °C 1018.4 hPa SSE 8.7 km/h 14.8 km/h 25% 0.0 mm CLR
18:54 23.2 °C 1.5 °C 1018.4 hPa South 8.7 km/h 14.8 km/h 24% 0.0 mm CLR
18:59 23.1 °C 1.4 °C 1018.4 hPa SSE 11.1 km/h 14.8 km/h 24% 0.0 mm CLR
19:05 22.9 °C 1.2 °C 1018.5 hPa SSE 11.3 km/h 20.9 km/h 24% 0.0 mm CLR
19:09 22.8 °C 1.2 °C 1018.5 hPa SW 10.0 km/h 7.4 km/h 24% 0.0 mm CLR
19:15 22.6 °C 1.0 °C 1018.5 hPa South 9.7 km/h 12.9 km/h 24% 0.0 mm CLR
19:19 22.4 °C 1.4 °C 1018.5 hPa South 7.6 km/h 18.5 km/h 25% 0.0 mm CLR
19:25 22.3 °C 1.3 °C 1018.5 hPa SSW 7.6 km/h 13.0 km/h 25% 0.0 mm CLR
19:29 22.2 °C 0.7 °C 1018.5 hPa South 10.0 km/h 20.4 km/h 24% 0.0 mm CLR
19:34 22.2 °C 1.2 °C 1018.6 hPa SE 10.0 km/h 14.8 km/h 25% 0.0 mm CLR
19:39 22.1 °C 1.1 °C 1018.6 hPa South 11.1 km/h 9.3 km/h 25% 0.0 mm CLR
19:44 21.9 °C 0.9 °C 1018.6 hPa SW 11.1 km/h 9.3 km/h 25% 0.0 mm CLR
19:49 21.8 °C 1.9 °C 1018.7 hPa SW 6.4 km/h 5.6 km/h 27% 0.0 mm CLR
19:54 21.7 °C 1.9 °C 1018.7 hPa SW 6.4 km/h 5.6 km/h 27% 0.0 mm CLR
19:59 21.6 °C 3.3 °C 1018.7 hPa SW 3.2 km/h 5.6 km/h 30% 0.0 mm CLR
20:05 21.3 °C 3.1 °C 1018.8 hPa SW 3.2 km/h 8.0 km/h 30% 0.0 mm CLR
20:09 21.1 °C 3.8 °C 1018.8 hPa SW 4.7 km/h 5.6 km/h 32% 0.0 mm CLR
20:15 20.8 °C 3.9 °C 1018.8 hPa SW 4.7 km/h 4.7 km/h 33% 0.0 mm CLR
20:19 20.6 °C 4.2 °C 1019.0 hPa SW 3.2 km/h 3.7 km/h 34% 0.0 mm CLR
20:25 20.3 °C 3.9 °C 1019.0 hPa SW 3.2 km/h 3.7 km/h 34% 0.0 mm CLR
20:29 20.2 °C 4.2 °C 1019.0 hPa West 2.3 km/h 7.4 km/h 35% 0.0 mm CLR
20:35 19.9 °C 4.3 °C 1019.0 hPa WSW 1.6 km/h 8.0 km/h 36% 0.0 mm CLR
20:39 19.5 °C 4.4 °C 1019.0 hPa West 4.7 km/h 7.4 km/h 37% 0.0 mm CLR
20:45 19.2 °C 4.5 °C 1019.0 hPa West 3.2 km/h 8.0 km/h 38% 0.0 mm CLR
20:49 18.9 °C 4.3 °C 1019.2 hPa West 3.2 km/h   38% 0.0 mm CLR
20:55 18.7 °C 4.1 °C 1019.2 hPa West 3.2 km/h   38% 0.0 mm CLR
20:59 18.5 °C 3.9 °C 1019.2 hPa Calm   3.2 km/h 38% 0.0 mm CLR
21:04 18.4 °C 3.8 °C 1019.1 hPa Calm   5.0 km/h 38% 0.0 mm CLR
21:09 18.2 °C 3.6 °C 1019.1 hPa West 2.9 km/h 7.4 km/h 38% 0.0 mm CLR
21:15 18.1 °C 3.6 °C 1019.1 hPa West 3.2 km/h 4.8 km/h 38% 0.0 mm CLR
21:19 17.9 °C 3.4 °C 1019.1 hPa West 2.9 km/h 5.0 km/h 38% 0.0 mm CLR
21:25 17.8 °C 3.7 °C 1019.1 hPa West 2.9 km/h 5.6 km/h 39% 0.0 mm CLR
21:29 17.7 °C 3.6 °C 1019.1 hPa West 3.2 km/h 5.6 km/h 39% 0.0 mm CLR
21:35 17.6 °C 3.8 °C 1019.0 hPa West 3.2 km/h 6.4 km/h 40% 0.0 mm CLR
21:39 17.5 °C 3.7 °C 1019.0 hPa West 3.2 km/h 5.6 km/h 40% 0.0 mm CLR
21:45 17.5 °C 3.7 °C 1019.0 hPa WNW 3.2 km/h 8.0 km/h 40% 0.0 mm CLR
21:49 17.4 °C 3.7 °C 1019.0 hPa NNW 4.7 km/h 7.4 km/h 40% 0.0 mm CLR
21:55 17.4 °C 4.0 °C 1019.0 hPa NNW 4.7 km/h 7.4 km/h 41% 0.0 mm CLR
22:00 17.2 °C 3.8 °C 1019.0 hPa NNW 3.2 km/h 8.0 km/h 41% 0.0 mm CLR
22:05 17.0 °C 4.0 °C 1019.1 hPa NNW 3.2 km/h 8.0 km/h 42% 0.0 mm CLR
22:09 16.7 °C 4.1 °C 1019.1 hPa East 3.9 km/h 7.6 km/h 43% 0.0 mm CLR
22:15 16.6 °C 3.9 °C 1019.1 hPa NE 3.2 km/h 8.0 km/h 43% 0.0 mm CLR
22:19 16.6 °C 3.9 °C 1019.1 hPa ENE 4.7 km/h 3.9 km/h 43% 0.0 mm CLR
22:25 16.7 °C 3.7 °C 1019.1 hPa ENE 3.2 km/h 4.8 km/h 42% 0.0 mm CLR
22:29 16.7 °C 3.7 °C 1019.1 hPa ENE 2.9 km/h 5.8 km/h 42% 0.0 mm CLR
22:34 16.7 °C 4.1 °C 1019.1 hPa ENE 2.9 km/h 7.4 km/h 43% 0.0 mm CLR
22:39 16.7 °C 4.1 °C 1019.1 hPa ENE 3.9 km/h 3.7 km/h 43% 0.0 mm CLR
22:45 16.6 °C 3.9 °C 1019.1 hPa ENE 3.2 km/h 3.2 km/h 43% 0.0 mm CLR
22:49 16.6 °C 3.9 °C 1019.1 hPa ENE 2.3 km/h 5.8 km/h 43% 0.0 mm CLR
22:55 16.7 °C 4.1 °C 1019.1 hPa ENE 2.3 km/h 7.4 km/h 43% 0.0 mm CLR
23:00 16.7 °C 4.4 °C 1019.1 hPa ENE 3.2 km/h 8.0 km/h 44% 0.0 mm CLR
23:05 16.7 °C 4.4 °C 1019.0 hPa ENE 3.2 km/h 4.8 km/h 44% 0.0 mm CLR
23:09 16.7 °C 4.4 °C 1019.0 hPa ENE 2.9 km/h   44% 0.0 mm CLR
23:15 16.6 °C 4.2 °C 1019.0 hPa ENE 3.2 km/h 8.0 km/h 44% 0.0 mm CLR
23:19 16.1 °C 4.2 °C 1019.1 hPa NW 2.9 km/h 7.4 km/h 45% 0.0 mm CLR
23:24 15.8 °C 4.2 °C 1019.1 hPa NW 2.9 km/h 5.6 km/h 46% 0.0 mm CLR
23:29 15.8 °C 4.5 °C 1019.1 hPa WNW 4.7 km/h 6.4 km/h 47% 0.0 mm CLR
23:35 15.9 °C 4.6 °C 1018.9 hPa WNW 4.7 km/h 5.6 km/h 47% 0.0 mm CLR
23:39 16.0 °C 5.0 °C 1018.9 hPa WNW 4.7 km/h 7.4 km/h 48% 0.0 mm CLR
23:44 16.1 °C 4.8 °C 1018.9 hPa WNW 4.7 km/h 7.4 km/h 47% 0.0 mm CLR
23:49 15.9 °C 4.6 °C 1018.8 hPa South 4.7 km/h 5.6 km/h 47% 0.0 mm CLR
23:55 15.7 °C 4.7 °C 1018.8 hPa South 3.2 km/h 8.0 km/h 48% 0.0 mm CLR
Murcia-Puente Tocinos, España
Compliments of Weather Underground - 2.75 mb

La estación de MeteoMurcia.com, publica sus datos en los siguientes proyectos:

Weather Underground PWS IMURCIAP2 Meteoclimatic www.awekas.at

W3Counter
Web Analytics